Regional Weather Roundup
Issued by NWS

Home | Current Version | Previous Version | Graphics & Text | Print | Product List | Glossary On
Versions: 1 2 3 4 5 6 7 8 9 10 11 12 13 14 15 16 17 18 19 20 21 22 23 24 25 26 27 28 29 30 31 32 33 34 35 36 37 38 39 40 41 42 43 44 45 46 47 48 49 50
000
ASUS43 KOAX 070410
RWRNE

WEATHER ROUNDUP FOR NEBRASKA
NATIONAL WEATHER SERVICE OMAHA NE
1000 PM CST SAT FEB 06 2016

NOTES: SATELLITE DATA IS BEING USED TO AUGMENT CLOUD COVER ABOVE
       12000 FEET.
       "FAIR" INDICATES FEW OR NO CLOUDS BELOW 12,000 FEET WITH NO
       SIGNIFICANT WEATHER AND/OR OBSTRUCTIONS TO VISIBILITY.

  * THESE STATIONS DO NOT REPORT WEATHER SUCH AS RAIN...SNOW OR FOG.

NEZ001>004-019>022-054>056-070500-
NEBRASKA PANHANDLE

CITY           SKY/WX    TMP DP  RH WIND       PRES   REMARKS
SCOTTSBLUFF    CLOUDY    38  25  59 NW23      30.09R WCI  27
ALLIANCE       CLOUDY    33  24  69 MISG      30.04R
CHADRON        PTCLDY    35  27  72 W13       30.08R WCI  26
KIMBALL        CLOUDY    38  25  59 W18       30.08R WCI  28
SIDNEY         CLOUDY    38  26  62 NW17      30.08R WCI  28
$$

NEZ057>060-069>072-079>082-070500-
SOUTHWEST NEBRASKA

CITY           SKY/WX    TMP DP  RH WIND       PRES   REMARKS
NORTH PLATTE   CLOUDY    32  24  72 NW8       30.00R WCI  25
IMPERIAL       CLOUDY    34  23  64 NW12      30.06R WCI  25
LEXINGTON      CLOUDY    35  26  70 W9        29.98R WCI  28
MCCOOK         CLOUDY    36  25  64 W13       30.03R WCI  27
OGALLALA       CLOUDY    38  25  59 W17       30.04S WCI  29
$$

NEZ005>010-023>029-035>040-094-070500-
NORTH CENTRAL NEBRASKA

CITY           SKY/WX    TMP DP  RH WIND       PRES   REMARKS
VALENTINE      CLOUDY    39  27  62 W10       29.97R WCI  32
AINSWORTH      CLOUDY    37  29  74 NW7       29.96R WCI  31
BROKEN BOW     CLOUDY    36  28  73 W13       29.95R WCI  27
O`NEILL        CLOUDY    39  29  67 NW13      29.92R WCI  32
ORD            CLOUDY    36  28  73 NW13      29.93R WCI  27
THEDFORD       CLOUDY    40  30  67 NW15      29.99R WCI  32
$$

NEZ041-046>049-061>064-073>077-083>087-070500-
SOUTH CENTRAL NEBRASKA

CITY           SKY/WX    TMP DP  RH WIND       PRES   REMARKS
GRAND ISLAND   CLOUDY    34  26  72 W17       29.94F WCI  23
AURORA         CLOUDY    33  28  79 W13       29.95S WCI  24
HASTINGS       CLOUDY    35  26  69 SW12      29.95F WCI  27
HEBRON         PTCLDY    35  28  78 SW8       30.00R WCI  28
HOLDREGE       CLOUDY    35  26  69 W15       29.97S WCI  26
YORK           CLOUDY    32  28  86 SW13      29.94F WCI  22
$$

NEZ011>018-030>034-042>045-070500-
NORTHEAST NEBRASKA

CITY           SKY/WX    TMP DP  RH WIND       PRES   REMARKS
NORFOLK        CLOUDY    31  25  78 SW9       29.88F WCI  23
ALBION         CLOUDY    35  28  73 W7        29.91R WCI  30
BLAIR          CLOUDY    35  27  73 SW15      29.91F WCI  26
COLUMBUS *     CLOUDY    34  21  60 SW12      29.92S WCI  25
FREMONT        CLOUDY    35  26  70 SW5       29.92F WCI  30
TEKAMAH        CLOUDY    34  26  72 SW23      29.89F WCI  22
WAYNE          PTCLDY    34  28  79 SW10      29.88S WCI  26
$$

NEZ050>053-065>068-078-088>093-070500-
SOUTHEAST NEBRASKA

CITY           SKY/WX    TMP DP  RH WIND       PRES   REMARKS
LINCOLN        CLOUDY    37  27  67 SW12      29.98F WCI  29
OMAHA EPPLEY   CLOUDY    38  26  62 S10       29.95F WCI  31
BEATRICE       CLOUDY    37  28  69 SW8       30.00S WCI  31
FALLS CITY     CLOUDY    38  27  64 S12       30.02F WCI  30
NEBRASKA CITY  PTCLDY    36  29  75 SW14      29.98F WCI  27
PLATTSMOUTH    PTCLDY    36  28  73 SW13      29.96F WCI  27
$$

NEZ044-045-051>053-067-070500-
OMAHA AREA

CITY           SKY/WX    TMP DP  RH WIND       PRES   REMARKS
OMAHA EPPLEY   CLOUDY    38  26  62 S10       29.95F WCI  31
BLAIR          CLOUDY    35  27  73 SW15      29.91F WCI  26
FREMONT        CLOUDY    35  26  70 SW5       29.92F WCI  30
MILLARD        CLOUDY    39  28  63 SW7G16    29.95F WCI  34
OFFUTT AFB     CLOUDY    36  28  72 SE5       29.95F WCI  32
PLATTSMOUTH    PTCLDY    36  28  73 SW13      29.96F WCI  27
WAHOO          FAIR      36  28  73 SW16G25   29.92F WCI  26
$$



USA.gov is the U.S. government's official web portal to all federal, state and local government web resources and services.